Location: ???? ????
(31.2831°N, 45.5190°E)
Time: 04:51:14
(UTC+00:00)

CZ-4 R/B - Pass Details

Date: 24 February 2021
Orbit: 532 x 597 km, 97.7° (Epoch: 14 April)

Event Time Altitude Azimuth Distance (km) Brightness Sun altitude
Rises 16:20:18 0° 191° (S) 2,668 5.0 -19.5°
Reaches altitude 10° 16:22:39 10° 204° (SSW) 1,777 4.2 -20.0°
Maximum altitude 16:25:54 26° 263° (W) 1,058 3.5 -20.7°
Drops below altitude 10° 16:29:11 10° 321° (NW) 1,785 4.4 -21.4°
Sets 16:31:33 0° 334° (NNW) 2,682 5.2 -21.9°
